| time (UTC) | temp C | wind direction | speed KPH | gust KPH | rain 1hr cm | rain 24hr cm | rain mn cm | humidity % | barometer mb |
| 20260508004602 | 6 | 0 | 0.0 | 6.4 | 0.00 | 0.00 | 0.00 | 85 | 1016.3 |
| 20260508003110 | 6 | 18 | 3.2 | 8.0 | 0.00 | 0.00 | 0.00 | 85 | 1016.2 |
| 20260508001555 | 6 | 0 | 0.0 | 4.8 | 0.00 | 0.00 | 0.00 | 86 | 1016.4 |
| 20260508000057 | 7 | 0 | 1.6 | 4.8 | 0.00 | 0.00 | 0.00 | 85 | 1016.3 |
| 20260507234555 | 7 | 41 | 0.0 | 4.8 | 0.00 | 0.00 | 0.00 | 85 | 1016.6 |
| 20260507233058 | 7 | 21 | 0.0 | 9.7 | 0.00 | 0.00 | 0.00 | 85 | 1016.8 |
| 20260507231613 | 7 | 0 | 1.6 | 6.4 | 0.00 | 0.00 | 0.00 | 86 | 1016.8 |
| 20260507230059 | 7 | 63 | 3.2 | 9.7 | 0.00 | 0.00 | 0.00 | 85 | 1016.7 |
| 20260507224605 | 7 | 0 | 0.0 | 0.0 | 0.00 | 0.00 | 0.00 | 84 | 1016.9 |
| 20260507223100 | 8 | 0 | 0.0 | 1.6 | 0.00 | 0.00 | 0.00 | 83 | 1016.9 |
| 20260507221600 | 8 | 38 | 0.0 | 6.4 | 0.00 | 0.00 | 0.00 | 84 | 1017.1 |
| 20260507220101 | 8 | 103 | 1.6 | 4.8 | 0.00 | 0.00 | 0.00 | 84 | 1017.1 |
| 20260507214613 | 8 | 74 | 3.2 | 6.4 | 0.00 | 0.00 | 0.00 | 83 | 1017.1 |
| 20260507213109 | 8 | 112 | 1.6 | 4.8 | 0.00 | 0.00 | 0.00 | 82 | 1017.2 |
| 20260507211555 | 8 | 92 | 0.0 | 6.4 | 0.00 | 0.00 | 0.00 | 82 | 1017.1 |
| 20260507210100 | 8 | 82 | 1.6 | 4.8 | 0.00 | 0.00 | 0.00 | 81 | 1017.0 |
| 20260507204612 | 9 | 90 | 0.0 | 4.8 | 0.00 | 0.00 | 0.00 | 81 | 1017.0 |
| 20260507203056 | 9 | 101 | 0.0 | 6.4 | 0.00 | 0.00 | 0.00 | 81 | 1016.9 |
| 20260507201603 | 10 | 114 | 3.2 | 6.4 | 0.00 | 0.00 | 0.00 | 80 | 1016.8 |
| 20260507200053 | 10 | 131 | 3.2 | 9.7 | 0.00 | 0.00 | 0.00 | 79 | 1016.6 |
| 20260507194555 | 10 | 128 | 3.2 | 11.3 | 0.00 | 0.00 | 0.00 | 79 | 1016.4 |
| 20260507193108 | 10 | 110 | 4.8 | 14.5 | 0.00 | 0.00 | 0.00 | 78 | 1016.3 |
| 20260507191554 | 10 | 134 | 6.4 | 14.5 | 0.00 | 0.00 | 0.00 | 77 | 1016.3 |
| 20260507190104 | 11 | 110 | 8.0 | 20.9 | 0.00 | 0.00 | 0.00 | 76 | 1016.3 |
| 20260507184556 | 11 | 110 | 8.0 | 22.5 | 0.00 | 0.00 | 0.00 | 74 | 1016.3 |
| 20260507183100 | 11 | 128 | 8.0 | 17.7 | 0.00 | 0.00 | 0.00 | 74 | 1016.2 |
| 20260507181557 | 11 | 134 | 6.4 | 16.1 | 0.00 | 0.00 | 0.00 | 73 | 1016.2 |
| 20260507180104 | 11 | 117 | 9.7 | 17.7 | 0.00 | 0.00 | 0.00 | 71 | 1016.1 |
| 20260507174556 | 11 | 114 | 11.3 | 19.3 | 0.00 | 0.00 | 0.00 | 70 | 1016.2 |
| 20260507173057 | 11 | 130 | 8.0 | 20.9 | 0.00 | 0.00 | 0.00 | 69 | 1016.1 |
| 20260507171602 | 12 | 120 | 11.3 | 17.7 | 0.00 | 0.00 | 0.00 | 68 | 1016.1 |
| 20260507170054 | 12 | 137 | 8.0 | 16.1 | 0.00 | 0.00 | 0.00 | 68 | 1016.2 |
| 20260507164556 | 12 | 146 | 8.0 | 16.1 | 0.00 | 0.00 | 0.00 | 68 | 1016.3 |
| 20260507163057 | 12 | 128 | 9.7 | 17.7 | 0.00 | 0.00 | 0.00 | 67 | 1016.2 |
| 20260507161556 | 12 | 95 | 6.4 | 16.1 | 0.00 | 0.00 | 0.00 | 67 | 1016.2 |
| 20260507160100 | 12 | 105 | 9.7 | 14.5 | 0.00 | 0.00 | 0.00 | 67 | 1016.1 |
| 20260507154555 | 12 | 106 | 8.0 | 17.7 | 0.00 | 0.00 | 0.00 | 67 | 1016.2 |
| 20260507153057 | 12 | 130 | 8.0 | 16.1 | 0.00 | 0.00 | 0.00 | 68 | 1016.2 |
| 20260507151554 | 12 | 67 | 8.0 | 19.3 | 0.00 | 0.00 | 0.00 | 68 | 1016.1 |
| 20260507150054 | 12 | 113 | 9.7 | 17.7 | 0.00 | 0.00 | 0.00 | 67 | 1016.2 |
| 20260507144558 | 13 | 122 | 9.7 | 19.3 | 0.00 | 0.00 | 0.00 | 65 | 1016.1 |
| 20260507143056 | 13 | 135 | 9.7 | 17.7 | 0.00 | 0.00 | 0.00 | 63 | 1016.2 |
| 20260507141601 | 12 | 157 | 8.0 | 16.1 | 0.00 | 0.00 | 0.00 | 64 | 1016.3 |
| 20260507140111 | 12 | 155 | 8.0 | 19.3 | 0.00 | 0.00 | 0.00 | 65 | 1016.3 |
| 20260507134559 | 12 | 128 | 8.0 | 14.5 | 0.00 | 0.00 | 0.00 | 64 | 1016.3 |
| 20260507133059 | 12 | 142 | 4.8 | 12.9 | 0.00 | 0.00 | 0.00 | 65 | 1016.4 |
| 20260507131604 | 12 | 88 | 4.8 | 12.9 | 0.00 | 0.00 | 0.00 | 66 | 1016.4 |
| 20260507130110 | 12 | 123 | 4.8 | 12.9 | 0.00 | 0.00 | 0.00 | 66 | 1016.4 |
| 20260507124606 | 12 | 107 | 6.4 | 12.9 | 0.00 | 0.00 | 0.00 | 67 | 1016.6 |
| 20260507123100 | 12 | 114 | 6.4 | 12.9 | 0.00 | 0.00 | 0.00 | 66 | 1016.5 |
| 20260507121557 | 12 | 109 | 8.0 | 16.1 | 0.00 | 0.00 | 0.00 | 67 | 1016.5 |
| 20260507120056 | 12 | 105 | 4.8 | 14.5 | 0.00 | 0.00 | 0.00 | 65 | 1016.4 |
| 20260507114607 | 12 | 117 | 6.4 | 14.5 | 0.00 | 0.00 | 0.00 | 65 | 1016.6 |
| 20260507113103 | 12 | 118 | 8.0 | 14.5 | 0.00 | 0.00 | 0.00 | 65 | 1016.5 |
| 20260507111559 | 12 | 99 | 8.0 | 14.5 | 0.00 | 0.00 | 0.00 | 65 | 1016.6 |
| 20260507110104 | 12 | 117 | 4.8 | 14.5 | 0.00 | 0.00 | 0.00 | 65 | 1016.6 |
| 20260507104557 | 12 | 128 | 4.8 | 14.5 | 0.00 | 0.00 | 0.00 | 66 | 1016.6 |
| 20260507103059 | 12 | 48 | 3.2 | 12.9 | 0.00 | 0.00 | 0.00 | 66 | 1016.7 |
| 20260507101558 | 12 | 89 | 6.4 | 14.5 | 0.00 | 0.00 | 0.00 | 66 | 1016.7 |
| 20260507100059 | 12 | 132 | 6.4 | 11.3 | 0.00 | 0.00 | 0.00 | 65 | 1016.6 |
| 20260507094555 | 12 | 117 | 0.0 | 11.3 | 0.00 | 0.00 | 0.00 | 66 | 1016.5 |
| 20260507093055 | 12 | 0 | 0.0 | 8.0 | 0.00 | 0.00 | 0.00 | 67 | 1016.6 |
| 20260507091601 | 12 | 87 | 6.4 | 12.9 | 0.00 | 0.00 | 0.00 | 64 | 1016.6 |
| 20260507090056 | 12 | 120 | 4.8 | 12.9 | 0.00 | 0.00 | 0.00 | 66 | 1016.5 |
| 20260507084559 | 11 | 96 | 4.8 | 12.9 | 0.00 | 0.00 | 0.00 | 68 | 1016.4 |
| 20260507083056 | 11 | 173 | 3.2 | 9.7 | 0.00 | 0.00 | 0.00 | 71 | 1016.4 |
| 20260507081552 | 11 | 89 | 0.0 | 11.3 | 0.00 | 0.00 | 0.00 | 73 | 1016.3 |
| 20260507080121 | 10 | 46 | 3.2 | 9.7 | 0.00 | 0.00 | 0.00 | 74 | 1016.3 |
| 20260507074601 | 10 | 38 | 0.0 | 9.7 | 0.00 | 0.00 | 0.00 | 75 | 1016.1 |
| 20260507073108 | 10 | 111 | 3.2 | 9.7 | 0.00 | 0.00 | 0.00 | 76 | 1016.1 |
| 20260507071606 | 9 | 82 | 3.2 | 9.7 | 0.00 | 0.00 | 0.00 | 79 | 1016.0 |
| 20260507070054 | 8 | 87 | 4.8 | 14.5 | 0.00 | 0.00 | 0.00 | 81 | 1016.0 |
| 20260507064557 | 8 | 71 | 3.2 | 11.3 | 0.00 | 0.00 | 0.00 | 82 | 1015.9 |
| 20260507063058 | 8 | 75 | 3.2 | 11.3 | 0.00 | 0.00 | 0.00 | 83 | 1016.0 |
| 20260507061554 | 7 | 51 | 1.6 | 6.4 | 0.00 | 0.00 | 0.00 | 83 | 1015.9 |
| 20260507060053 | 7 | 44 | 1.6 | 8.0 | 0.00 | 0.00 | 0.00 | 83 | 1015.8 |
| 20260507054605 | 7 | 28 | 0.0 | 6.4 | 0.00 | 0.00 | 0.00 | 83 | 1015.7 |
| 20260507053055 | 7 | 33 | 1.6 | 8.0 | 0.00 | 0.00 | 0.00 | 83 | 1015.7 |
| 20260507051552 | 7 | 32 | 0.0 | 4.8 | 0.00 | 0.00 | 0.00 | 83 | 1015.6 |
| 20260507050057 | 7 | 36 | 0.0 | 6.4 | 0.00 | 0.00 | 0.00 | 83 | 1015.5 |
| 20260507044600 | 7 | 42 | 0.0 | 6.4 | 0.00 | 0.00 | 0.00 | 83 | 1015.4 |
| 20260507043052 | 7 | 0 | 0.0 | 8.0 | 0.00 | 0.00 | 0.00 | 83 | 1015.3 |
| 20260507041601 | 7 | 0 | 1.6 | 4.8 | 0.00 | 0.00 | 0.00 | 83 | 1015.3 |
| 20260507040105 | 7 | 36 | 0.0 | 4.8 | 0.00 | 0.00 | 0.00 | 83 | 1015.3 |
| 20260507034559 | 7 | 27 | 1.6 | 4.8 | 0.00 | 0.00 | 0.00 | 83 | 1015.3 |
| 20260507033057 | 7 | 0 | 0.0 | 4.8 | 0.00 | 0.00 | 0.00 | 83 | 1015.2 |
| 20260507031606 | 7 | 32 | 0.0 | 4.8 | 0.00 | 0.00 | 0.00 | 83 | 1015.3 |
| 20260507030056 | 7 | 0 | 0.0 | 4.8 | 0.00 | 0.00 | 0.00 | 83 | 1015.3 |
| 20260507024557 | 7 | 5 | 0.0 | 4.8 | 0.00 | 0.00 | 0.00 | 83 | 1015.3 |
| 20260507023056 | 7 | 25 | 0.0 | 6.4 | 0.00 | 0.00 | 0.00 | 82 | 1015.2 |
| 20260507021556 | 7 | 0 | 0.0 | 4.8 | 0.00 | 0.00 | 0.00 | 82 | 1015.2 |
| 20260507014608 | 7 | 30 | 0.0 | 4.8 | 0.00 | 0.00 | 0.00 | 81 | 1015.1 |
| 20260507013054 | 8 | 0 | 0.0 | 4.8 | 0.00 | 0.00 | 0.00 | 81 | 1015.1 |
| 20260507011603 | 8 | 50 | 1.6 | 6.4 | 0.00 | 0.00 | 0.00 | 81 | 1015.0 |
| 20260507010057 | 8 | 64 | 0.0 | 4.8 | 0.00 | 0.00 | 0.00 | 81 | 1015.0 |